TimeEDT,TemperatureF,Dew PointF,Humidity,Sea Level PressureIn,VisibilityMPH,Wind Direction,Wind SpeedMPH,Gust SpeedMPH,PrecipitationIn,Events,Conditions,WindDirDegrees,DateUTC
12:54 AM,44.1,30.0,58,30.05,10.0,Calm,Calm,-,N/A,,Clear,0,2014-04-25 04:54:00
1:54 AM,43.0,32.0,65,30.02,10.0,Calm,Calm,-,N/A,,Clear,0,2014-04-25 05:54:00
2:54 AM,41.0,32.0,70,30.02,10.0,Calm,Calm,-,N/A,,Clear,0,2014-04-25 06:54:00
3:54 AM,39.0,32.0,76,30.03,10.0,Calm,Calm,-,N/A,,Clear,0,2014-04-25 07:54:00
4:54 AM,37.0,30.0,76,30.05,10.0,Calm,Calm,-,N/A,,Clear,0,2014-04-25 08:54:00
5:54 AM,37.9,30.0,73,30.04,10.0,Calm,Calm,-,N/A,,Clear,0,2014-04-25 09:54:00
6:54 AM,39.0,30.9,73,30.04,10.0,Calm,Calm,-,N/A,,Clear,0,2014-04-25 10:54:00
7:54 AM,48.9,30.9,50,30.06,10.0,Calm,Calm,-,N/A,,Clear,0,2014-04-25 11:54:00
8:54 AM,55.0,28.0,35,30.05,10.0,ESE,9.2,-,N/A,,Clear,120,2014-04-25 12:54:00
9:54 AM,57.9,26.1,30,30.04,10.0,SE,10.4,-,N/A,,Clear,140,2014-04-25 13:54:00
10:54 AM,60.1,24.1,25,30.03,10.0,SSE,13.8,-,N/A,,Clear,150,2014-04-25 14:54:00
11:54 AM,63.0,25.0,24,30.00,10.0,SSE,12.7,-,N/A,,Clear,160,2014-04-25 15:54:00
12:54 PM,61.0,25.0,25,29.99,10.0,SE,12.7,-,N/A,,Partly Cloudy,140,2014-04-25 16:54:00
1:54 PM,64.0,28.9,27,29.94,-9999.0,SE,11.5,20.7,N/A,,Clear,140,2014-04-25 17:54:00
2:54 PM,64.9,28.9,26,29.90,-9999.0,SE,16.1,25.3,N/A,,Clear,140,2014-04-25 18:54:00
3:54 PM,64.9,33.1,31,29.86,-9999.0,SE,13.8,24.2,N/A,,Clear,140,2014-04-25 19:54:00
4:54 PM,64.0,30.9,29,29.84,-9999.0,SSE,16.1,26.5,N/A,,Clear,150,2014-04-25 20:54:00
5:54 PM,60.1,34.0,38,29.84,-9999.0,SSE,16.1,24.2,N/A,,Overcast,150,2014-04-25 21:54:00
6:54 PM,57.9,39.0,49,29.82,-9999.0,SE,10.4,-,N/A,,Overcast,140,2014-04-25 22:54:00
7:54 PM,54.0,46.9,77,29.80,-9999.0,SE,9.2,-,0.04,Rain,Light Rain,140,2014-04-25 23:54:00
8:54 PM,53.1,50.0,89,29.75,-9999.0,SSE,15.0,24.2,0.13,Rain,Rain,150,2014-04-26 00:54:00
9:54 PM,54.0,51.1,90,29.73,-9999.0,SSE,11.5,-,0.07,Rain,Light Rain,150,2014-04-26 01:54:00
10:11 PM,55.0,52.0,89,29.73,-9999.0,SSE,9.2,-,0.00,,Overcast,150,2014-04-26 02:11:00
10:28 PM,55.0,52.0,89,29.72,-9999.0,SSE,10.4,-,0.00,,Overcast,150,2014-04-26 02:28:00
10:54 PM,55.0,52.0,89,29.71,-9999.0,SE,6.9,-,0.00,,Overcast,140,2014-04-26 02:54:00
11:02 PM,55.0,53.1,93,29.70,-9999.0,SE,9.2,-,N/A,,Overcast,140,2014-04-26 03:02:00
11:54 PM,55.9,53.1,90,29.69,-9999.0,Calm,Calm,-,N/A,,Overcast,0,2014-04-26 03:54:00